TimeCST,TemperatureF,Dew PointF,Humidity,Sea Level PressureIn,VisibilityMPH,Wind Direction,Wind SpeedMPH,Gust SpeedMPH,PrecipitationIn,Events,Conditions,WindDirDegrees,DateUTC
12:15 AM,59.0,55.4,88,30.06,10.0,SE,6.9,-,N/A,,Clear,140,2012-12-01 06:15:00
12:35 AM,59.0,55.4,88,30.06,10.0,SE,5.8,-,N/A,,Clear,140,2012-12-01 06:35:00
12:55 AM,57.2,55.4,94,30.06,10.0,SE,8.1,-,N/A,,Clear,140,2012-12-01 06:55:00
1:15 AM,57.2,55.4,94,30.06,10.0,SE,8.1,-,N/A,,Clear,140,2012-12-01 07:15:00
1:35 AM,57.2,55.4,94,30.06,10.0,SSE,5.8,-,N/A,,Clear,150,2012-12-01 07:35:00
1:55 AM,57.2,55.4,94,30.06,10.0,SSE,4.6,-,N/A,,Clear,150,2012-12-01 07:55:00
2:15 AM,57.2,55.4,94,30.06,9.0,SSE,4.6,-,N/A,,Clear,150,2012-12-01 08:15:00
2:35 AM,55.4,55.4,100,30.06,8.0,SSE,4.6,-,N/A,,Clear,150,2012-12-01 08:35:00
2:55 AM,55.4,55.4,100,30.06,7.0,SSE,3.5,-,N/A,,Clear,150,2012-12-01 08:55:00
3:35 AM,55.4,55.4,100,30.05,5.0,SSE,3.5,-,N/A,,Clear,150,2012-12-01 09:35:00
3:55 AM,55.4,55.4,100,30.05,5.0,SSE,4.6,-,N/A,,Clear,160,2012-12-01 09:55:00
4:15 AM,55.4,55.4,100,30.05,5.0,South,3.5,-,N/A,,Clear,180,2012-12-01 10:15:00
4:35 AM,55.4,55.4,100,30.05,4.0,SSE,4.6,-,N/A,,Clear,150,2012-12-01 10:35:00
4:55 AM,55.4,55.4,100,30.05,4.0,SSE,4.6,-,N/A,,Clear,150,2012-12-01 10:55:00
5:15 AM,55.4,55.4,100,30.05,5.0,South,3.5,-,N/A,,Clear,180,2012-12-01 11:15:00
5:35 AM,53.6,53.6,100,30.05,0.8,SSE,3.5,-,N/A,,Mostly Cloudy,150,2012-12-01 11:35:00
5:55 AM,55.4,55.4,100,30.06,5.0,SE,5.8,-,N/A,,Mostly Cloudy,140,2012-12-01 11:55:00
6:15 AM,57.2,57.2,100,30.06,7.0,SSE,8.1,-,N/A,,Overcast,160,2012-12-01 12:15:00
6:35 AM,59.0,59.0,100,30.06,8.0,SSE,8.1,-,N/A,,Overcast,160,2012-12-01 12:35:00
6:55 AM,59.0,59.0,100,30.07,9.0,South,6.9,-,N/A,,Overcast,180,2012-12-01 12:55:00
7:15 AM,59.0,59.0,100,30.07,3.0,South,4.6,-,N/A,,Overcast,170,2012-12-01 13:15:00
7:35 AM,59.0,59.0,100,30.08,7.0,SSE,5.8,-,N/A,,Overcast,150,2012-12-01 13:35:00
7:55 AM,59.0,59.0,100,30.08,8.0,SE,3.5,-,N/A,,Overcast,140,2012-12-01 13:55:00
8:15 AM,59.0,59.0,100,30.09,8.0,SE,4.6,-,N/A,,Overcast,140,2012-12-01 14:15:00
8:35 AM,60.8,59.0,94,30.09,8.0,SSE,3.5,-,N/A,,Overcast,150,2012-12-01 14:35:00
8:55 AM,62.6,59.0,88,30.09,9.0,SE,4.6,-,N/A,,Overcast,140,2012-12-01 14:55:00
9:15 AM,62.6,59.0,88,30.09,10.0,South,5.8,-,N/A,,Overcast,170,2012-12-01 15:15:00
9:35 AM,64.4,59.0,83,30.10,10.0,SSW,5.8,-,N/A,,Overcast,210,2012-12-01 15:35:00
9:55 AM,64.4,59.0,83,30.09,10.0,South,4.6,-,N/A,,Overcast,180,2012-12-01 15:55:00
10:15 AM,68.0,60.8,78,30.09,10.0,SSW,6.9,-,N/A,,Overcast,200,2012-12-01 16:15:00
10:35 AM,69.8,60.8,73,30.09,10.0,SSW,10.4,-,N/A,,Overcast,210,2012-12-01 16:35:00
10:55 AM,73.4,60.8,65,30.08,10.0,SSW,15.0,20.7,N/A,,Overcast,210,2012-12-01 16:55:00
11:15 AM,73.4,59.0,61,30.07,10.0,SW,15.0,21.9,N/A,,Mostly Cloudy,220,2012-12-01 17:15:00
11:35 AM,75.2,59.0,57,30.06,10.0,South,17.3,24.2,N/A,,Partly Cloudy,190,2012-12-01 17:35:00
11:55 AM,75.2,59.0,57,30.05,10.0,SSW,15.0,21.9,N/A,,Clear,200,2012-12-01 17:55:00
12:15 PM,77.0,59.0,54,30.03,10.0,SSW,19.6,24.2,N/A,,Clear,210,2012-12-01 18:15:00
12:35 PM,77.0,59.0,54,30.02,10.0,SSW,12.7,-,N/A,,Clear,200,2012-12-01 18:35:00
12:55 PM,78.8,57.2,47,30.01,10.0,SSW,12.7,19.6,N/A,,Clear,210,2012-12-01 18:55:00
1:15 PM,80.6,57.2,45,30.00,10.0,SSW,17.3,21.9,N/A,,Clear,200,2012-12-01 19:15:00
1:35 PM,80.6,57.2,45,29.99,10.0,SW,12.7,21.9,N/A,,Clear,220,2012-12-01 19:35:00
1:55 PM,82.4,55.4,39,29.98,10.0,SW,17.3,21.9,N/A,,Clear,220,2012-12-01 19:55:00
2:15 PM,82.4,55.4,39,29.97,10.0,SSW,17.3,27.6,N/A,,Clear,210,2012-12-01 20:15:00
2:35 PM,82.4,55.4,39,29.97,10.0,SSW,18.4,25.3,N/A,,Clear,200,2012-12-01 20:35:00
2:55 PM,82.4,55.4,39,29.97,10.0,SSW,15.0,23.0,N/A,,Clear,200,2012-12-01 20:55:00
3:15 PM,82.4,53.6,37,29.97,10.0,SSW,17.3,21.9,N/A,,Clear,200,2012-12-01 21:15:00
3:35 PM,82.4,53.6,37,29.97,10.0,SSW,17.3,25.3,N/A,,Clear,210,2012-12-01 21:35:00
3:55 PM,82.4,51.8,35,29.97,10.0,SSW,12.7,-,N/A,,Clear,210,2012-12-01 21:55:00
4:15 PM,82.4,51.8,35,29.97,10.0,SSW,12.7,17.3,N/A,,Clear,210,2012-12-01 22:15:00
4:35 PM,82.4,53.6,37,29.97,10.0,SSW,11.5,-,N/A,,Clear,210,2012-12-01 22:35:00
4:55 PM,80.6,53.6,39,29.97,10.0,South,13.8,-,N/A,,Clear,190,2012-12-01 22:55:00
5:15 PM,78.8,53.6,42,29.97,10.0,South,11.5,-,N/A,,Clear,180,2012-12-01 23:15:00
5:35 PM,77.0,53.6,44,29.97,10.0,South,10.4,-,N/A,,Clear,180,2012-12-01 23:35:00
5:55 PM,75.2,53.6,47,29.98,10.0,SSE,10.4,-,N/A,,Clear,160,2012-12-01 23:55:00
6:15 PM,75.2,55.4,50,29.98,10.0,South,11.5,-,N/A,,Clear,170,2012-12-02 00:15:00
6:35 PM,75.2,55.4,50,29.99,10.0,South,10.4,-,N/A,,Partly Cloudy,170,2012-12-02 00:35:00
6:55 PM,73.4,55.4,53,29.98,10.0,SSE,12.7,-,N/A,,Clear,160,2012-12-02 00:55:00
7:15 PM,73.4,57.2,57,29.99,10.0,South,12.7,-,N/A,,Clear,180,2012-12-02 01:15:00
7:35 PM,71.6,57.2,60,30.00,10.0,South,11.5,19.6,N/A,,Clear,170,2012-12-02 01:35:00
7:55 PM,71.6,57.2,60,30.01,10.0,South,12.7,-,N/A,,Clear,170,2012-12-02 01:55:00
8:15 PM,69.8,57.2,64,30.02,10.0,South,9.2,-,N/A,,Clear,170,2012-12-02 02:15:00
8:55 PM,68.0,57.2,68,30.03,10.0,South,10.4,-,N/A,,Clear,180,2012-12-02 02:55:00
9:15 PM,68.0,57.2,68,30.03,10.0,South,10.4,-,N/A,,Clear,170,2012-12-02 03:15:00
9:35 PM,66.2,57.2,73,30.04,10.0,South,9.2,-,N/A,,Clear,170,2012-12-02 03:35:00
9:55 PM,66.2,57.2,73,30.04,10.0,South,8.1,-,N/A,,Clear,170,2012-12-02 03:55:00
10:15 PM,64.4,57.2,77,30.05,10.0,South,6.9,-,N/A,,Clear,180,2012-12-02 04:15:00
10:35 PM,64.4,57.2,77,30.05,10.0,South,6.9,-,N/A,,Clear,180,2012-12-02 04:35:00
10:55 PM,62.6,57.2,82,30.04,10.0,North,-9999.0,-,N/A,,Clear,0,2012-12-02 04:55:00
11:15 PM,62.6,57.2,82,30.05,10.0,North,-9999.0,-,N/A,,Clear,0,2012-12-02 05:15:00
11:35 PM,62.6,57.2,82,30.06,10.0,North,-9999.0,-,N/A,,Clear,0,2012-12-02 05:35:00
11:55 PM,60.8,57.2,88,30.06,10.0,North,-9999.0,-,N/A,,Clear,0,2012-12-02 05:55:00